Terminal Aerodrome Forecast
Issued by NWS

Home | Current Version | Previous Version | Text Only | Print | Product List | Glossary On
Versions: 1 2 3 4 5 6 7 8 9 10 11 12 13 14 15 16 17 18 19 20 21 22 23 24 25 26 27
000
FTUS43 KAPX 021120
TAFPLN
TAF
KPLN 021120Z 0212/0312 00000KT 1/4SM FG VV006
     FM021230 00000KT 4SM BR SCT040
     FM021330 32004KT P6SM SCT015
     FM021800 31007KT P6SM SCT040 SCT200
     FM030000 VRB03KT P6SM BKN120
     FM030300 00000KT 2SM BR BKN120=

USA.gov is the U.S. government's official web portal to all federal, state and local government web resources and services.